Location: Dal�� Lhota
(48.7500°N, 14.0167°E)
Time: 02:33:51
(UTC+00:00)

Cosmos 1634 Rocket - Pass Details

Date: 24 September 2020
Orbit: 961 x 991 km, 82.9° (Epoch: 29 October)

Event Time Altitude Azimuth Distance (km) Brightness Sun altitude
Rises 18:30:42 0° 170° (S) 3,632 6.7 -16.1°
Reaches altitude 10° 18:33:15 10° 166° (SSE) 2,691 6.0 -16.5°
Maximum altitude 18:39:11 52° 91° (E) 1,184 4.1 -17.4°
Drops below altitude 10° 18:45:11 10° 17° (NNE) 2,723 6.4 -18.3°
Sets 18:47:45 0° 13° (NNE) 3,679 7.1 -18.7°
